Showing default

COSMOS 2273, 23004

Orbit data source: Space-Track

COSMOS 2273, 23004 is a payload satellite owned by VKS (CIS) in LEO that was launched on Sat, 12 Feb 1994 UTC via a TSIKLON-3 launch vehicle from the Plesetsk Missile And Space Complex (PKMTR). Payload-class satellites include a variety of spacecraft equipped with specific instruments for various scientific and technological missions. These include communications satellites like Starlink; space stations such as the ISS; scientific satellites like the Hubble; Earth observation satellites from companies like Planet Labs, Umbra, and HawkEye 360; GPS; miniature CubeSats for education and research; and military/defense satellites.

Loading next visibility...
Identifier
23004, 1994-011F
Orbit
LEO
Country
Flag of CISCIS
Related business
Manufacturer
NPO PM
Mission
Defense Communications
Bus & Motor
STRELA-3, Unknown motor
Mass
225 kg wet, 225 kg dry
Launch date (UTC)
1994-02-12 (32 years ago)
Launch vehicle
TSIKLON-3
Launch site
Plesetsk Missile And Space Complex (PKMTR)
Object type
Payload
Rocket body
Debris
Shape & HBR
Cyl, 0.8 m
Radar Cross Section
1.257 m², Medium (>0.1 m² and < 1m²)

Expand to show TLE details & history
Last TLE update: 6 hours ago

TLE from 6 hours ago
0 COSMOS 2273
1 23004U 94011F   25355.21157123  .00000037  00000-0  14586-3 0  9993
2 23004  82.5748  68.7824 0004605 222.5996 202.3768 12.62913605468281
Epoch: 2025-12-21T05:04Z
TLE epoch observation values (Epoch: 2025-12-21T05:04:39.754Z)
Latitude
64.02951°
Longitude
-81.97017°
Altitude
1,425.255 km
Speed
7.153 km/s
True Right ascension
05h 36m 53s
True Declination
63° 54' 20"
Sunlit
Object was in full shadow at epoch
Visualization orbit readout
Latitude
Unknown
Longitude
Unknown
Altitude
Unknown
Speed
Unknown
Apparent Right ascension
Unknown
Apparent Declination
Unknown
Sunlit
N/A
Visualization observer readout
Local Sidereal Time
10:26:00
Azimuth
Unknown
Elevation
Unknown
Doppler factor
Unknown
Orbital elements
Apogee altitude
1,411.847 km
Perigee altitude
1,404.676 km
Semi-major axis
7,786.398 km
Eccentricity
0.00046
Inclination
82.5748°
RAAN
68.7824°
Arg. of periapsis
222.5996°
True anomaly
202.35672°
Mean anomaly
202.3768°
Eccentric anomaly
202.36676°
Mean motion
3.15892 °/min
Orbital period
113.96 mins
BSTAR
0.00014586
Loading maneuver chart data...
Computing Atmospheric mass density...
Loading historical data...
Loading historical data...
Loading historical data...
Loading historical data...
Loading historical data...
Loading historical data...
Loading historical data...

Documentation

Showing up to 5 results
|